DW7447 Weather Reports


Display with metric or nautical units.
time (UTC)temp
F
wind
direction
speed
MPH
gust
MPH
rain 1hr
in
rain 24hr
in
rain mn
in
humidity
%
barometer
mb
20260504010004 45 27 2.0 7.0 0.00 1.02 0.01 99 1014.1
20260504005505 45 0 5.0 7.0 0.00 1.02 0.01 99 1014.1
20260504005006 45 30 1.0 6.0 0.00 1.02 0.01 99 1013.9
20260504004504 45 30 2.0 6.0 0.00 1.03 0.01 99 1014.0
20260504003504 45 27 2.0 6.0 0.00 1.03 0.01 99 1014.0
20260504003004 45 17 2.0 6.0 0.00 1.03 0.01 99 1014.0
20260504002504 45 7 2.0 7.0 0.00 1.03 0.01 99 1014.0
20260504002004 45 30 3.0 7.0 0.00 1.04 0.01 99 1013.9
20260504001502 45 32 3.0 6.0 0.00 1.04 0.01 99 1013.9
20260504001004 45 47 3.0 11.0 0.00 1.05 0.01 99 1013.8
20260504000454 45 10 4.0 11.0 0.00 1.05 0.01 99 1013.8
20260503235950 45 35 4.0 8.0 0.01 1.05 0.01 99 1013.8
20260503235449 45 0 5.0 9.0 0.01 1.06 0.01 99 1013.9
20260503234932 45 28 4.0 9.0 0.01 1.06 0.01 99 1013.9
20260503234430 45 14 4.0 8.0 0.01 1.06 0.01 99 1013.9
20260503233932 45 35 3.0 7.0 0.01 1.06 0.01 99 1013.9
20260503233426 45 59 4.0 7.0 0.01 1.06 0.01 99 1013.9
20260503232925 45 61 2.0 8.0 0.02 1.07 0.01 99 1014.0
20260503232425 45 39 5.0 11.0 0.02 1.07 0.01 99 1013.9
20260503231925 45 54 4.0 11.0 0.02 1.08 0.01 99 1014.0
20260503230925 45 56 4.0 8.0 0.02 1.08 0.01 99 1013.9
20260503230426 45 45 2.0 9.0 0.02 1.07 0.00 99 1013.9
20260503225423 45 32 4.0 9.0 0.02 1.07 1.07 99 1013.9
20260503224925 45 17 4.0 12.0 0.02 1.07 1.07 99 1013.9
20260503224424 45 24 7.0 12.0 0.02 1.07 1.07 99 1013.9
20260503223424 45 1 4.0 8.0 0.02 1.07 1.06 99 1014.0
20260503222925 45 25 4.0 8.0 0.02 1.06 1.06 99 1013.8
20260503222425 45 45 4.0 9.0 0.02 1.06 1.06 99 1013.9
20260503221925 46 11 4.0 9.0 0.02 1.06 1.06 99 1013.8
20260503221424 45 24 3.0 8.0 0.02 1.06 1.06 99 1013.7
20260503220926 45 47 3.0 9.0 0.02 1.06 1.06 99 1013.8
20260503220425 46 7 6.0 11.0 0.01 1.06 1.06 99 1013.7
20260503215925 45 13 6.0 11.0 0.01 1.06 1.06 99 1013.7
20260503215424 45 18 4.0 12.0 0.01 1.06 1.06 99 1013.7
20260503214925 45 51 7.0 13.0 0.01 1.06 1.06 99 1013.7
20260503214425 45 4 6.0 14.0 0.02 1.06 1.06 99 1013.7
20260503213924 46 3 8.0 14.0 0.02 1.06 1.06 99 1013.6
20260503213424 46 18 6.0 12.0 0.01 1.05 1.05 99 1013.5
20260503212925 46 11 5.0 12.0 0.01 1.05 1.05 99 1013.5
20260503212423 46 0 7.0 15.0 0.01 1.05 1.05 99 1013.5
20260503211424 46 28 8.0 16.0 0.01 1.05 1.05 99 1013.5
20260503210923 46 13 9.0 16.0 0.01 1.05 1.05 99 1013.3
20260503205924 46 41 6.0 15.0 0.02 1.05 1.05 99 1013.3
20260503205424 46 3 7.0 15.0 0.02 1.05 1.05 99 1013.3
20260503204926 46 39 5.0 12.0 0.02 1.05 1.04 99 1013.2
20260503204425 46 11 5.0 9.0 0.01 1.04 1.04 99 1013.2
20260503203925 46 20 4.0 13.0 0.02 1.04 1.04 99 1013.1
20260503203424 46 34 6.0 13.0 0.02 1.04 1.04 99 1013.2
20260503202927 46 8 5.0 14.0 0.02 1.04 1.04 99 1013.2
20260503202425 46 28 5.0 14.0 0.02 1.04 1.04 99 1013.0
20260503201926 46 44 8.0 16.0 0.03 1.04 1.04 99 1013.0
20260503200924 46 0 6.0 14.0 0.04 1.04 1.04 99 1012.8
20260503195425 46 56 5.0 15.0 0.04 1.03 1.03 99 1012.8
20260503194425 46 0 5.0 14.0 0.04 1.03 1.03 99 1012.7
20260503193925 46 30 7.0 15.0 0.04 1.02 1.02 99 1012.7
20260503193423 46 13 10.0 16.0 0.04 1.02 1.02 99 1012.6
20260503192925 46 0 7.0 16.0 0.04 1.02 1.02 99 1012.6
20260503192424 46 31 7.0 14.0 0.04 1.02 1.02 99 1012.6
20260503191925 46 8 8.0 15.0 0.03 1.01 1.01 99 1012.5
20260503191424 46 37 9.0 15.0 0.03 1.01 1.01 99 1012.5
20260503190924 46 28 8.0 14.0 0.03 1.00 1.00 99 1012.4
20260503190425 46 17 10.0 15.0 0.03 1.00 1.00 99 1012.3
20260503185925 46 14 6.0 16.0 0.03 1.00 0.99 99 1012.3
20260503185424 46 27 12.0 16.0 0.03 0.99 0.99 99 1012.3
20260503184925 46 21 9.0 16.0 0.03 0.99 0.99 99 1012.3
20260503183923 46 27 9.0 17.0 0.03 0.98 0.98 99 1012.1
20260503183425 46 35 6.0 14.0 0.04 0.98 0.98 99 1012.0
20260503182924 46 17 9.0 15.0 0.04 0.98 0.98 99 1012.0
20260503182424 46 24 9.0 18.0 0.04 0.98 0.98 99 1011.9
20260503181925 47 0 10.0 18.0 0.04 0.98 0.98 99 1012.0
20260503180925 47 17 6.0 14.0 0.04 0.97 0.97 99 1012.0
20260503180425 47 0 4.0 14.0 0.04 0.97 0.97 99 1011.8
20260503175927 47 3 7.0 16.0 0.05 0.93 0.96 99 1011.8
20260503175423 47 11 7.0 16.0 0.04 0.93 0.96 99 1011.8
20260503174924 47 0 8.0 17.0 0.04 0.96 0.96 99 1011.8
20260503174425 47 38 9.0 17.0 0.03 0.95 0.95 99 1011.8
20260503173926 47 10 11.0 18.0 0.04 0.95 0.95 99 1011.8
20260503172923 47 41 10.0 21.0 0.03 0.94 0.94 99 1011.7
20260503172424 47 0 10.0 21.0 0.02 0.93 0.94 99 1011.6
20260503171923 47 13 8.0 20.0 0.02 0.93 0.94 99 1011.6
20260503170925 47 13 9.0 18.0 0.02 0.93 0.93 99 1011.5
20260503170425 47 10 9.0 18.0 0.02 0.93 0.93 99 1011.5
20260503150924 48 34 7.0 13.0 0.02 0.88 0.88 99 1011.2
20260503150423 48 14 6.0 12.0 0.02 0.88 0.88 99 1011.3
20260503130924 49 23 4.0 12.0 0.07 0.82 0.82 99 1011.0
20260503130424 49 6 8.0 12.0 0.06 0.81 0.81 99 1011.1
20260503110429 49 63 6.0 12.0 0.02 0.73 0.73 99 1010.7
20260503090423 49 42 8.0 17.0 0.06 0.69 0.69 99 1010.8
20260503080924 49 8 5.0 16.0 0.04 0.65 0.65 98 1010.6
20260503080423 49 65 9.0 16.0 0.03 0.64 0.64 98 1010.6
20260503072923 49 51 10.0 17.0 0.02 0.61 0.61 98 1010.5
20260503072424 49 69 6.0 14.0 0.02 0.61 0.61 98 1010.6
20260503071923 49 63 7.0 15.0 0.02 0.61 0.61 98 1010.5
20260503071422 49 25 10.0 16.0 0.02 0.61 0.61 98 1010.6
20260503070922 49 24 6.0 17.0 0.02 0.61 0.61 98 1010.5
20260503070424 49 27 8.0 17.0 0.02 0.61 0.61 98 1010.6
20260503054423 49 56 6.0 11.0 0.11 0.54 0.54 97 1010.4
20260503053924 49 7 7.0 11.0 0.12 0.54 0.54 97 1010.4
20260503053424 50 21 6.0 11.0 0.12 0.53 0.53 97 1010.5
20260503052925 50 61 5.0 9.0 0.13 0.52 0.52 97 1010.6
20260503052424 50 56 4.0 8.0 0.14 0.51 0.51 97 1010.6
20260503051924 50 42 5.0 8.0 0.16 0.50 0.50 97 1010.5
20260503051422 50 16 4.0 8.0 0.16 0.49 0.49 97 1010.5
20260503050924 50 49 5.0 9.0 0.17 0.48 0.47 97 1010.5
20260503050423 50 52 6.0 9.0 0.19 0.47 0.46 97 1010.5
20260503045925 50 3 6.0 9.0 0.20 0.46 0.46 97 1010.4
20260503044422 50 61 3.0 6.0 0.23 0.43 0.43 97 1010.6
20260503043923 50 23 2.0 6.0 0.22 0.42 0.42 97 1010.5
20260503043422 50 52 3.0 8.0 0.23 0.41 0.41 97 1010.5
20260503042922 50 18 4.0 8.0 0.23 0.39 0.39 97 1010.5
20260503041423 50 30 2.0 6.0 0.18 0.33 0.31 97 1010.7
20260503040923 50 30 2.0 6.0 0.17 0.31 0.31 96 1010.8
20260503040425 50 17 4.0 6.0 0.15 0.28 0.28 96 1010.8
20260503035923 50 35 3.0 6.0 0.13 0.26 0.24 96 1010.9
20260503034922 50 17 2.0 5.0 0.10 0.23 0.23 96 1010.9
20260503034422 50 25 2.0 5.0 0.08 0.20 0.20 96 1011.0
20260503033922 50 25 2.0 5.0 0.07 0.20 0.19 96 1010.9
20260503033423 50 25 2.0 5.0 0.06 0.18 0.18 96 1011.1
20260503032924 50 25 2.0 5.0 0.04 0.17 0.16 96 1011.0
20260503032423 50 20 2.0 6.0 0.03 0.16 0.16 96 1011.1
20260503031923 50 13 2.0 6.0 0.02 0.15 0.15 96 1011.0
20260503031424 50 17 3.0 6.0 0.03 0.15 0.14 96 1011.0
20260503030923 50 11 4.0 6.0 0.02 0.14 0.14 96 1011.1
20260503030422 50 0 4.0 6.0 0.02 0.13 0.13 96 1011.1
20260503025922 50 34 2.0 5.0 0.02 0.13 0.13 96 1011.1
20260503025422 50 20 2.0 7.0 0.02 0.13 0.13 96 1011.0
20260503024921 50 51 1.0 8.0 0.02 0.13 0.13 95 1011.0
20260503024422 50 31 3.0 9.0 0.02 0.13 0.13 95 1010.9
20260503022923 51 42 4.0 13.0 0.04 0.13 0.13 95 1010.7
20260503022422 51 47 5.0 13.0 0.04 0.13 0.13 94 1010.8
20260503021922 51 35 5.0 11.0 0.05 0.13 0.13 94 1010.7
20260503021426 51 52 4.0 8.0 0.06 0.12 0.12 94 1010.7
20260503020922 51 23 3.0 8.0 0.06 0.12 0.12 94 1010.8
20260503020422 52 32 2.0 7.0 0.06 0.12 0.12 94 1010.8
20260503015922 52 73 3.0 7.0 0.06 0.11 0.11 94 1010.8
20260503015423 52 75 2.0 6.0 0.06 0.11 0.11 94 1010.9
20260503014922 52 86 2.0 6.0 0.06 0.11 0.11 94 1010.8
20260503014422 52 54 1.0 5.0 0.06 0.11 0.11 93 1010.8
20260503013923 52 35 1.0 5.0 0.06 0.10 0.10 93 1010.8
20260503013424 52 353 2.0 5.0 0.05 0.09 0.09 93 1010.9
20260503012924 52 353 1.0 4.0 0.04 0.09 0.09 93 1010.9
20260503011923 53 353 1.0 4.0 0.04 0.08 0.07 92 1011.0
20260503011423 53 353 0.0 5.0 0.02 0.06 0.06 92 1011.2
20260503010925 53 353 1.0 5.0 0.02 0.06 0.06 92 1011.2
20260503010422 53 65 2.0 4.0 0.02 0.06 0.06 92 1011.2